Theta_e
291 284 280 278 283 284 285 284 284 285 286 285 281 278 278 278 279 284 285 286 285 280 279 279 278 278 278 279 280 281 281 279 279 278 277 277 277 276 276 276 276 276 277 279 280 280 280 280 279 279 279 278 278 278 278 277 277 277 277 277 276 276 276 276 275 276 276 276 275 276 275 275 276 277 279 277 278 277 278 277 276 276 275 274 275 277
290 283 281 283 286 287 286 284 284 285 286 284 279 278 277 278 277 282 284 287 286 279 277 278 278 277 277 279 280 280 279 278 278 277 277 277 276 277 276 276 276 277 279 279 279 280 280 278 280 278 278 280 276 278 277 276 276 276 276 276 276 276 275 275 275 275 275 275 275 274 274 274 274 275 275 275 276 277 278 277 275 275 274 274 274 276
282 279 282 285 286 287 284 284 285 283 281 280 279 276 272 276 279 281 283 284 286 281 277 277 276 276 277 278 280 279 278 279 279 278 278 277 276 276 276 276 276 277 277 277 278 279 278 279 279 278 278 277 276 276 276 276 276 275 275 275 276 276 276 275 276 276 274 275 275 275 274 274 274 276 276 276 278 277 275 275 275 275 274 274 274 275
278 280 285 286 285 284 283 283 283 282 281 278 277 275 273 278 276 273 279 282 285 281 277 277 275 275 278 279 278 279 279 279 279 279 278 278 277 277 277 277 277 276 276 276 277 277 278 279 278 278 277 277 276 276 275 275 275 276 275 275 275 276 275 274 275 276 275 275 276 276 275 275 275 274 277 276 276 274 274 274 274 274 274 274 274 275
279 283 286 286 285 283 280 281 281 278 278 279 278 276 275 277 278 278 278 281 282 281 280 277 274 274 275 275 276 278 280 279 279 279 278 278 278 278 278 278 278 277 277 277 277 277 277 278 278 278 278 277 276 275 275 274 274 276 275 274 275 275 275 274 275 273 274 274 274 274 274 275 275 275 274 274 274 274 275 275 273 273 274 274 274 275
282 285 286 284 283 281 279 279 279 279 275 275 278 279 279 279 278 278 279 279 276 277 280 277 269 270 275 275 275 277 277 277 278 277 277 277 277 277 277 277 278 278 278 278 277 278 278 278 278 278 278 277 276 275 275 275 275 274 274 274 274 274 274 274 274 274 274 273 273 272 272 270 271 271 272 272 272 272 272 272 273 273 273 273 273 273
282 285 284 282 281 279 278 277 280 280 273 270 276 280 279 279 279 278 278 276 270 268 279 278 272 265 273 274 275 276 276 276 277 277 277 277 277 277 277 277 278 278 278 278 278 278 278 278 278 277 277 276 275 275 275 275 274 274 274 274 274 274 274 275 273 273 273 272 271 271 271 271 270 270 271 271 272 272 271 272 271 272 272 273 272 272
283 282 281 281 280 278 276 276 280 280 272 272 278 279 280 278 277 278 278 277 274 277 280 277 273 268 265 272 275 276 275 275 276 276 277 277 277 277 278 278 278 278 278 278 278 278 279 279 278 277 277 276 276 276 275 274 274 274 274 274 274 274 276 273 273 273 273 272 271 271 270 272 271 270 270 270 271 272 272 270 270 270 270 271 271 271
282 279 279 278 277 277 276 279 281 281 278 277 281 280 280 279 278 279 278 277 276 276 271 273 276 268 264 273 276 276 274 274 275 276 277 277 278 278 278 278 278 278 278 278 278 278 279 279 278 278 276 275 275 274 274 274 275 274 274 274 274 274 274 273 273 273 271 272 272 270 270 269 271 271 271 272 273 271 272 268 269 269 269 269 269 270
282 282 282 281 277 275 279 280 278 282 277 278 281 281 280 280 280 280 276 277 272 272 264 272 274 267 267 272 274 275 274 275 276 277 277 278 278 278 278 279 279 279 278 279 279 279 279 279 279 277 276 274 274 274 275 274 274 274 274 274 274 273 273 273 272 272 271 271 272 270 269 269 268 269 269 269 269 270 270 268 269 268 268 269 269 269
282 288 289 281 278 281 280 279 281 283 283 283 278 278 276 278 277 278 276 275 267 261 268 273 275 272 266 270 273 274 275 276 277 275 276 277 278 278 279 279 279 279 279 279 278 279 279 279 277 275 275 275 274 274 274 274 274 274 274 274 273 273 273 273 272 271 270 270 270 269 269 268 268 268 268 267 268 269 269 268 268 267 268 268 268 269
282 281 281 282 285 283 281 279 280 280 280 278 275 274 272 270 272 271 270 268 262 259 266 272 274 273 263 267 273 277 274 273 277 276 277 277 278 278 279 279 279 279 279 279 279 279 279 276 275 274 274 274 274 274 274 274 274 274 274 274 273 273 272 272 272 271 270 270 270 269 269 268 268 268 268 267 267 268 268 268 267 267 267 267 268 267
278 279 281 283 285 282 278 273 275 277 278 278 274 274 269 261 261 259 259 261 261 259 267 271 275 270 270 273 274 277 278 277 276 278 277 277 278 278 279 279 279 279 279 278 278 279 278 277 277 275 275 275 274 274 274 274 274 274 274 274 272 272 272 272 271 271 270 270 269 269 269 268 268 268 268 267 267 267 267 267 266 266 266 266 266 265
274 278 278 280 279 282 278 272 273 272 275 276 273 266 260 258 255 257 257 260 260 267 271 272 274 270 272 273 275 277 279 279 278 278 278 278 278 278 278 278 279 279 279 279 279 279 279 278 278 277 276 276 275 275 275 275 275 274 274 274 272 272 272 272 271 271 270 270 269 269 268 268 268 268 267 267 267 267 267 268 266 266 266 265 265 265
263 267 273 277 274 279 279 277 277 275 274 274 276 273 264 259 257 258 260 258 259 263 270 273 267 261 266 272 274 277 277 277 278 278 278 278 278 278 278 277 277 278 278 279 279 279 279 279 278 277 277 276 276 276 275 275 275 274 273 273 273 271 271 271 271 270 270 270 269 269 268 268 268 267 267 267 268 267 267 267 266 266 266 265 264 265
273 270 276 282 281 280 279 281 280 278 276 275 276 273 268 267 267 261 258 262 259 263 264 263 266 267 272 275 275 275 276 276 277 277 277 277 278 277 277 278 278 278 279 279 279 279 279 279 279 278 278 277 277 277 276 275 275 274 273 273 272 272 271 271 271 270 270 269 269 269 268 268 268 268 268 268 269 267 267 267 267 265 265 265 265 265
275 274 279 281 282 278 279 282 280 277 265 272 271 266 270 274 273 265 267 271 270 263 263 264 270 272 273 274 273 275 275 276 275 276 276 277 277 276 277 278 279 279 279 280 280 280 280 280 280 280 279 279 278 277 276 276 275 274 273 273 272 271 271 271 271 270 270 269 268 268 268 268 268 267 266 265 265 266 266 266 266 265 265 265 265 265
267 272 278 280 279 280 278 280 281 280 276 272 266 271 276 277 275 268 262 258 259 259 261 266 265 267 267 267 271 272 273 275 275 276 276 276 276 276 277 278 279 279 280 280 280 280 281 281 281 281 281 280 279 278 277 276 276 275 274 273 272 271 270 270 270 269 269 268 268 268 268 268 267 267 266 266 265 265 265 265 265 265 265 264 265 265
276 269 275 279 278 281 281 279 278 279 278 274 271 277 271 263 263 266 264 258 256 255 259 263 264 265 266 270 269 271 270 274 275 275 274 275 276 276 277 278 278 279 279 279 280 280 281 281 281 281 281 280 279 279 278 277 276 275 274 273 272 271 271 271 270 269 269 268 268 268 267 267 267 266 266 266 266 265 265 265 265 265 265 264 264 265
276 269 271 278 279 280 280 276 268 271 276 279 278 275 276 271 262 263 263 260 261 258 259 258 259 265 268 267 270 273 272 273 274 272 274 275 276 277 277 278 278 278 279 279 280 280 281 281 281 281 281 280 279 279 278 277 276 274 274 273 272 272 271 270 269 269 268 268 268 268 267 267 267 266 266 265 265 265 264 264 265 264 264 264 264 264
273 273 264 273 278 278 273 275 271 272 266 271 269 268 270 266 273 269 266 265 263 258 255 256 260 261 271 271 274 274 274 276 276 276 276 276 277 278 278 278 279 279 279 280 280 280 281 281 281 281 281 281 281 280 279 277 275 274 273 272 272 271 270 270 269 269 268 268 267 267 267 266 266 266 266 265 265 265 264 264 265 264 264 264 264 264
269 271 267 270 273 274 273 277 275 273 272 271 269 265 269 265 264 260 263 264 266 265 260 259 262 267 276 276 277 276 278 277 277 276 276 276 277 277 278 279 279 280 280 280 280 280 280 280 280 280 280 281 280 280 278 277 276 274 273 272 272 271 270 270 269 268 268 268 267 267 267 266 266 266 265 265 264 264 264 264 264 264 264 264 264 263
275 273 273 267 272 273 276 278 278 277 277 276 275 273 273 265 262 260 260 259 261 263 262 261 260 267 274 270 273 276 276 275 275 274 275 277 277 277 278 278 279 279 280 281 281 280 280 280 280 280 280 280 280 280 279 277 275 274 273 272 271 271 270 270 269 269 268 267 267 267 266 266 265 265 265 264 264 264 264 264 264 264 264 263 263 263
283 268 266 270 273 275 277 277 276 276 278 277 275 274 272 267 269 268 262 257 261 261 262 260 260 268 273 271 271 271 271 270 271 273 275 277 277 278 278 278 279 279 280 280 280 280 280 280 280 280 279 280 280 279 278 277 275 274 273 272 271 270 270 270 269 269 268 267 267 266 266 266 265 265 265 264 264 264 264 264 264 264 263 263 263 263
270 273 272 263 262 266 266 271 273 275 276 273 271 274 274 269 268 263 265 264 264 263 267 261 260 267 268 269 271 272 273 275 277 277 276 276 278 279 279 279 280 279 279 279 279 280 280 280 279 280 280 280 279 279 278 277 275 274 273 272 271 271 270 270 269 268 267 267 266 266 265 265 265 264 264 264 264 264 264 264 264 264 264 263 263 263
272 270 268 264 262 260 259 259 262 264 263 271 274 273 274 271 267 267 265 263 262 263 265 259 262 272 274 271 275 276 275 276 277 277 278 278 278 279 280 280 279 279 279 279 278 278 278 279 279 279 278 278 277 277 277 276 276 274 273 272 272 271 270 269 268 268 267 267 266 266 265 265 265 264 264 264 264 264 264 264 264 263 264 264 263 263
269 273 273 267 263 265 268 269 272 276 272 268 266 270 269 270 270 268 261 261 265 261 262 266 269 271 273 275 276 277 276 275 276 277 277 278 278 278 278 278 277 277 277 276 277 277 277 276 276 277 277 278 277 277 277 276 275 275 273 272 271 271 270 269 268 268 267 267 266 266 266 265 265 265 264 264 264 264 264 264 264 263 263 263 263 262
269 268 271 273 272 273 274 274 275 275 272 273 270 270 268 270 269 269 269 269 265 264 266 271 271 268 272 275 276 276 278 278 279 279 279 280 280 280 279 277 280 278 277 277 276 276 276 276 276 276 277 277 277 277 277 277 277 275 274 272 271 270 270 269 268 267 267 267 266 266 266 266 266 265 265 264 264 264 264 264 263 263 263 263 262 262
266 266 266 268 266 271 273 274 275 274 273 273 272 271 270 269 269 268 269 273 269 267 267 272 273 270 273 276 277 278 278 278 278 279 280 280 279 278 277 276 276 276 276 276 275 275 276 276 276 277 277 277 277 276 276 277 276 275 274 272 270 270 269 269 268 267 267 267 266 266 266 266 266 265 265 265 264 264 264 264 263 263 262 262 262 261
269 264 264 266 270 274 273 273 274 272 272 272 271 273 273 271 270 271 272 273 272 270 273 274 273 273 275 277 278 279 280 279 279 279 279 278 278 278 277 276 276 276 276 276 276 276 276 277 277 277 277 277 277 277 277 276 275 273 272 271 270 269 269 268 268 267 267 266 266 266 266 266 265 265 265 264 263 263 263 262 262 261 260 261 260 259
271 265 275 266 265 268 272 272 271 272 270 271 274 274 274 273 272 272 272 273 272 271 272 272 272 272 277 279 278 279 278 277 277 277 278 278 279 278 276 276 277 277 277 277 277 276 276 277 277 278 278 279 279 278 277 276 274 272 272 271 270 269 269 268 267 266 266 266 266 265 265 264 264 263 263 263 263 262 262 263 261 259 259 259 258 258
270 265 265 264 266 267 270 272 272 272 271 270 271 273 273 271 267 269 268 271 269 270 271 270 268 270 276 278 278 278 278 277 276 277 278 278 278 277 277 277 277 278 277 276 276 276 277 278 278 278 278 278 279 278 276 275 273 272 271 271 270 269 269 268 267 266 266 265 265 265 264 264 263 262 262 262 262 262 261 260 259 259 259 258 258 258
267 266 265 264 265 265 270 271 272 272 270 268 268 270 272 271 271 270 272 272 274 275 270 268 271 276 277 277 276 277 277 277 276 277 277 277 278 278 277 277 277 276 275 276 277 278 278 278 278 279 278 278 278 277 277 276 272 271 271 270 269 268 268 267 266 266 265 265 264 264 264 263 262 262 261 261 261 260 260 259 259 258 258 257 257 256
264 265 266 266 264 262 267 270 270 267 264 267 272 273 273 274 273 270 271 273 274 275 273 275 276 277 277 277 276 276 276 276 276 277 278 278 278 277 278 277 275 275 277 278 278 278 278 279 278 278 278 277 277 277 276 274 272 271 270 269 268 267 267 266 266 265 264 264 264 263 263 262 262 261 260 260 260 259 259 258 258 258 257 257 257 256
267 265 264 264 265 264 263 268 266 261 265 273 273 276 276 275 274 273 273 273 274 274 274 274 275 275 277 277 276 276 276 277 277 277 278 279 277 277 275 275 276 277 278 278 278 278 277 277 276 275 275 275 276 275 272 271 270 269 268 268 267 266 266 265 265 264 263 263 263 263 262 262 261 260 260 260 259 259 258 258 258 258 257 256 257 257
266 267 266 268 263 264 265 262 258 267 271 275 277 276 274 274 273 271 270 272 275 275 275 274 275 276 276 276 276 276 276 276 277 277 277 277 277 275 275 277 277 278 277 277 276 276 275 274 274 274 274 275 274 272 270 268 268 268 267 267 267 266 265 264 264 263 263 262 262 262 262 261 260 259 259 259 259 258 259 258 257 257 257 256 256 255
271 265 266 267 265 263 260 259 268 273 272 272 271 274 274 272 272 271 268 270 273 275 274 274 275 275 275 275 275 275 276 277 276 276 276 276 277 277 278 278 278 277 276 276 275 274 274 274 274 274 274 273 270 268 268 268 268 267 267 266 266 265 264 264 262 262 262 262 262 261 261 261 260 259 258 258 258 257 257 258 257 256 255 254 255 256
275 271 268 266 265 265 264 263 263 262 264 264 271 275 275 274 274 273 268 269 274 275 275 274 273 274 274 274 275 275 276 274 272 274 276 277 278 278 278 278 277 276 275 274 273 273 273 273 273 273 272 270 269 268 268 268 267 267 266 265 265 264 263 262 262 262 261 261 261 261 260 260 259 258 258 257 257 257 258 257 257 256 256 255 254 254
273 273 269 266 265 263 264 262 259 259 268 270 272 272 275 274 274 273 267 268 272 273 274 273 274 274 274 274 274 275 273 270 270 273 276 277 277 277 276 276 276 275 274 273 272 271 271 272 272 272 271 270 269 268 268 267 267 266 265 265 264 263 262 261 261 261 261 261 261 260 260 259 258 258 257 256 257 257 256 257 256 256 255 255 254 254
270 267 268 267 263 265 262 261 263 262 266 269 273 274 274 274 274 270 265 266 272 275 274 273 274 275 274 274 275 273 271 268 270 273 277 277 276 276 275 274 273 273 272 272 272 272 271 272 271 270 269 269 268 268 267 267 266 265 264 263 262 262 261 261 261 261 261 261 260 259 259 258 257 257 256 257 256 255 255 255 255 255 255 255 254 253
265 266 267 267 264 266 268 264 263 269 272 274 275 274 274 275 273 265 264 271 277 278 277 276 275 274 275 274 274 271 273 274 275 276 276 276 275 274 274 273 273 272 271 271 271 272 270 270 270 269 269 269 268 268 267 266 265 264 263 262 262 261 261 261 261 261 260 260 259 259 259 258 257 256 256 255 256 256 255 254 255 255 254 253 253 252
263 262 264 264 265 265 265 264 267 269 273 274 275 275 275 272 266 267 275 279 278 277 277 276 275 275 275 275 274 274 275 276 276 275 274 273 272 272 272 272 271 271 271 271 271 270 269 269 268 268 268 268 268 268 267 266 264 264 263 262 261 261 261 261 260 260 259 259 259 258 258 257 257 256 256 256 255 254 255 254 254 254 253 252 252 251
266 266 263 263 266 267 266 263 265 263 268 276 276 274 275 269 274 278 279 279 278 277 276 275 275 275 275 274 274 274 274 274 273 272 272 272 271 270 270 270 270 269 269 269 269 269 268 266 266 266 266 266 267 267 266 265 264 263 262 261 261 261 260 260 260 260 259 259 258 257 257 256 256 256 255 254 254 254 253 253 253 253 253 252 251 250
269 268 265 265 268 267 265 264 266 273 274 277 276 274 274 276 280 280 277 277 278 276 276 275 275 275 274 273 273 273 273 272 271 271 271 271 271 270 270 270 270 269 270 269 268 267 266 265 265 264 265 265 265 265 265 264 262 262 261 261 260 260 259 259 259 259 258 257 257 256 256 255 254 254 254 254 253 252 252 252 252 252 252 251 250 250
273 270 269 271 269 272 273 275 278 276 278 278 277 278 279 280 279 279 278 277 276 276 276 275 274 275 274 273 273 272 271 271 270 271 270 269 269 269 269 269 268 268 268 266 266 266 265 264 263 263 263 264 264 264 263 263 261 260 259 259 259 259 258 258 258 257 256 256 256 255 254 254 254 254 254 254 253 252 252 252 251 251 252 251 250 249
274 276 274 273 272 274 277 279 280 279 278 278 277 279 279 280 279 278 278 277 277 276 276 274 274 274 273 273 272 271 270 270 269 270 269 269 269 269 269 267 268 268 267 266 264 264 264 264 263 262 261 261 261 261 261 260 259 258 258 258 258 258 258 257 256 255 256 255 254 253 253 252 253 253 253 253 252 253 253 252 252 251 251 250 250 249
274 275 276 271 272 273 270 273 276 274 275 278 279 279 278 279 278 278 277 277 276 276 275 274 273 273 273 273 271 270 270 270 269 269 269 268 267 267 266 266 267 266 265 263 264 264 263 263 262 261 260 260 259 260 259 258 258 258 257 258 258 258 257 256 255 255 255 255 255 254 252 253 253 253 253 252 253 253 253 252 251 251 251 251 250 249
272 276 274 274 274 273 274 277 276 276 278 278 278 277 276 276 276 276 276 276 276 276 275 274 274 273 273 271 271 270 269 270 269 268 267 267 266 266 266 266 265 265 264 263 263 263 262 262 261 260 259 259 259 259 259 258 258 257 257 257 258 255 255 254 254 254 254 254 253 252 251 252 254 253 252 253 252 252 251 251 251 251 251 250 250 248
274 275 270 272 272 274 276 277 276 276 277 278 278 275 276 276 276 276 276 275 274 274 273 273 274 273 273 272 272 270 268 269 269 267 266 265 265 265 265 264 264 263 262 261 262 262 261 260 259 259 258 258 259 259 258 257 257 257 257 258 256 255 254 254 254 253 252 252 252 251 252 252 251 251 251 251 251 251 252 251 251 251 251 252 252 251
275 273 276 274 270 271 271 275 275 274 274 277 278 277 276 276 276 276 275 274 273 273 272 271 272 273 273 273 271 270 268 267 267 266 265 264 264 265 264 263 262 261 261 261 261 261 260 259 258 258 258 258 258 258 257 256 257 256 257 256 255 255 255 254 254 252 252 251 250 251 251 251 251 250 251 251 251 251 251 254 256 255 253 253 256 257
275 275 274 269 267 272 278 277 277 277 277 277 277 277 276 276 276 275 274 274 273 273 272 271 271 271 271 271 271 269 267 267 266 266 264 263 264 264 263 261 260 260 260 261 260 259 259 258 258 257 257 257 257 257 257 256 255 255 256 256 256 255 255 253 253 253 252 252 250 252 252 251 250 250 250 250 250 250 250 250 253 260 262 260 260 260
Wind_Speed
2 11 6 4 5 5 4 4 3 3 2 1 2 3 3 3 4 1 1 6 13 11 7 7 8 6 4 4 4 5 6 7 6 6 4 4 4 3 4 3 3 3 3 3 3 3 3 3 4 3 2 1 2 2 2 3 3 3 2 3 3 3 3 3 4 3 2 2 2 1 2 2 3 3 3 2 1 2 3 3 3 3 3 3 4 4
7 12 9 6 6 5 4 6 4 7 6 3 4 6 6 4 6 5 0 2 2 8 2 3 9 4 3 3 3 2 4 4 6 5 4 5 4 4 5 5 5 4 3 3 2 3 3 3 3 4 3 2 2 1 2 2 2 2 3 2 2 2 2 2 2 2 2 2 1 1 3 1 4 3 3 2 2 2 3 3 3 3 3 3 3 3
11 8 8 11 5 4 6 10 9 8 8 6 8 2 4 5 4 7 2 5 3 10 7 4 7 4 3 3 1 3 2 1 3 6 6 7 6 5 5 6 6 5 5 5 5 4 4 4 5 4 3 3 3 1 1 1 2 2 1 1 1 1 1 1 1 1 2 1 2 1 3 2 2 3 2 2 1 2 3 2 3 3 3 3 3 3
8 6 10 9 5 8 10 10 10 6 8 9 7 8 2 2 5 4 7 5 8 4 9 5 9 2 1 0 2 2 3 2 2 4 5 7 8 8 8 8 8 7 7 7 7 7 5 5 4 4 4 5 4 2 1 0 1 1 0 0 0 0 1 2 1 0 2 2 3 2 3 4 3 4 4 3 1 2 2 2 2 3 2 3 2 2
5 4 8 4 8 7 7 9 12 8 5 2 6 3 2 4 1 3 5 6 2 9 11 8 6 0 2 2 2 2 2 4 3 3 2 3 5 6 6 6 8 9 9 8 7 7 7 6 7 6 4 4 4 4 3 2 3 2 3 3 3 3 3 3 2 1 3 2 3 3 3 4 3 3 4 2 2 1 1 0 1 1 2 2 3 2
11 9 5 7 7 7 6 10 8 6 6 6 1 3 1 2 5 2 2 3 2 2 6 4 4 3 5 7 6 5 3 3 4 5 6 6 5 5 6 8 7 8 8 10 10 10 9 9 7 6 5 5 5 5 5 5 4 3 4 4 4 4 4 4 3 3 2 2 2 2 2 3 2 3 3 3 2 2 1 1 1 2 1 3 3 2
2 6 7 4 5 5 6 4 1 5 1 2 6 1 3 3 2 2 3 3 2 2 1 3 4 5 2 5 5 6 5 6 4 7 8 8 8 8 8 8 8 8 8 7 7 8 8 9 8 8 8 7 6 6 5 5 5 5 5 5 5 5 4 4 3 3 1 1 2 2 2 3 3 4 3 2 1 1 2 2 1 0 2 2 2 2
4 8 8 8 6 6 6 9 5 4 4 1 5 5 7 5 4 3 3 2 3 1 1 5 2 2 5 5 4 6 6 7 7 9 9 9 9 10 9 9 9 10 9 9 10 10 10 10 11 12 10 8 8 5 4 5 5 6 7 6 6 5 4 3 3 3 2 2 2 2 3 3 3 3 3 3 3 1 1 2 0 1 1 1 3 2
2 4 6 8 6 6 6 3 8 1 1 3 8 7 8 6 5 3 0 1 2 1 4 7 3 2 2 2 1 5 5 6 11 11 11 10 10 10 10 10 11 12 12 11 11 11 12 12 12 10 10 9 7 6 6 6 6 6 6 6 5 6 4 4 4 3 3 2 3 3 3 3 3 3 3 2 3 2 2 1 1 1 1 1 2 4
1 2 1 3 4 5 4 6 4 1 4 6 7 4 3 1 1 1 3 1 3 2 2 3 1 0 7 3 2 1 4 9 11 13 13 12 12 11 11 10 10 9 10 11 13 12 12 12 11 9 8 7 9 7 7 6 6 6 6 6 6 6 6 5 5 4 4 3 2 2 3 3 3 2 3 4 4 3 3 1 1 0 1 2 2 4
2 3 1 4 3 2 3 4 2 0 2 7 4 5 7 5 3 1 4 2 2 1 3 2 2 3 4 5 8 7 9 9 9 4 5 6 10 11 11 11 10 10 10 10 11 11 12 9 9 7 10 9 7 7 7 7 7 7 7 7 8 7 6 6 6 5 6 4 3 3 3 3 3 3 3 4 4 4 3 2 2 0 0 1 3 3
3 4 2 0 2 3 1 2 5 4 3 5 5 4 3 4 8 6 4 4 1 3 5 4 1 3 2 6 5 10 4 6 9 8 9 10 12 13 11 11 11 11 11 11 10 12 10 6 6 6 9 9 9 8 9 9 8 8 8 8 8 7 6 6 6 6 6 5 5 4 4 4 3 3 3 4 4 4 4 4 2 2 1 1 3 2
3 2 3 4 1 9 4 3 5 7 7 11 7 8 8 2 5 3 5 4 1 3 3 1 6 3 5 9 6 8 13 9 8 9 10 10 11 11 11 12 11 10 10 11 11 11 9 11 11 11 11 9 10 11 11 10 9 9 9 9 8 8 7 7 7 7 7 6 6 5 4 4 3 4 4 4 5 4 5 4 3 2 2 2 1 3
3 2 5 5 5 2 4 7 7 7 8 9 7 2 5 4 4 0 4 1 3 8 5 4 1 3 5 8 7 9 12 13 11 10 7 7 9 10 10 9 8 9 10 11 11 11 11 12 12 12 11 11 11 11 11 10 9 9 8 9 9 9 7 6 7 7 7 7 7 6 6 5 4 4 4 5 4 4 4 4 4 4 3 2 2 2
2 3 3 3 1 3 4 3 1 3 4 4 2 2 3 4 2 0 1 1 4 7 9 4 1 4 1 5 1 8 4 3 5 6 6 6 7 7 6 6 7 9 10 11 11 12 13 13 13 12 12 11 11 11 10 9 10 9 9 9 11 9 8 7 7 7 8 7 7 6 6 6 5 5 4 4 4 3 3 3 3 3 3 3 3 3
1 2 2 1 2 1 1 1 2 0 0 3 2 6 5 1 4 1 3 1 3 5 7 3 4 6 5 2 3 2 2 2 4 7 5 9 8 6 7 9 10 10 11 10 11 12 13 13 12 11 11 11 11 11 10 10 10 10 11 10 11 11 9 8 8 7 8 7 6 6 7 7 6 5 4 4 4 3 3 3 3 4 3 4 3 3
2 1 2 4 3 0 2 0 1 3 1 3 4 1 3 4 3 1 5 4 1 1 8 2 6 6 6 6 2 3 3 8 5 8 7 11 9 6 10 12 11 12 11 11 12 13 14 12 11 12 13 11 11 11 12 12 12 13 12 11 11 10 8 9 9 8 7 7 6 6 7 6 6 6 6 5 4 5 4 4 4 4 4 3 3 3
1 6 3 2 3 2 2 2 1 1 3 1 2 3 1 1 4 3 2 3 1 1 7 1 5 8 4 8 3 5 5 12 9 11 13 10 7 9 13 13 13 13 14 14 13 12 12 12 13 13 12 13 14 13 13 14 13 13 13 12 13 11 11 10 9 9 8 7 7 6 7 7 7 6 6 5 5 5 5 4 3 3 4 3 3 3
1 3 2 3 4 3 3 1 2 2 2 1 3 1 2 1 2 2 1 3 3 3 5 5 3 5 5 10 3 5 4 9 10 10 7 11 12 14 15 15 14 13 12 12 13 13 13 13 14 14 14 13 13 13 14 14 14 12 12 13 14 14 13 11 9 9 8 8 6 6 7 7 6 6 6 5 5 4 4 4 5 4 4 3 3 3
1 1 4 1 1 1 1 3 3 1 4 2 2 2 0 4 2 0 3 2 4 6 4 8 2 8 6 6 5 8 7 8 10 7 9 13 14 13 13 13 13 13 13 13 13 13 13 13 14 14 14 14 15 14 14 13 11 14 14 13 12 11 10 9 10 10 10 8 7 6 6 6 6 6 6 5 5 5 5 5 4 4 3 4 3 3
1 1 1 2 1 1 1 1 4 6 2 1 3 1 2 0 3 2 1 2 3 3 2 3 8 7 10 6 4 7 9 10 9 12 10 10 12 13 13 13 12 12 12 13 12 12 13 13 12 12 12 13 13 12 11 12 14 14 12 13 14 14 12 12 12 11 10 8 8 8 8 7 6 7 6 5 5 6 6 5 5 4 4 3 4 3
1 3 3 4 4 2 4 1 2 3 5 5 6 3 5 1 1 1 9 2 0 1 4 1 12 8 17 3 8 8 10 9 10 9 11 10 12 12 12 13 13 12 12 12 11 11 11 11 12 11 11 10 10 11 13 13 12 12 14 14 13 12 12 12 12 11 10 9 8 9 8 8 7 6 5 5 6 6 6 5 5 4 4 4 4 3
1 1 1 4 6 6 2 0 0 3 3 2 4 2 4 3 5 3 1 5 2 4 1 3 2 15 6 4 5 7 7 7 8 6 9 11 11 12 13 12 11 11 12 12 12 11 11 11 12 12 13 13 14 14 13 12 13 14 14 14 13 13 14 13 12 10 9 9 9 9 8 7 7 6 6 7 6 6 6 6 5 4 5 5 4 3
1 1 2 7 6 2 2 3 2 3 2 1 1 2 3 3 7 9 6 4 3 3 4 3 4 14 8 0 2 4 5 4 5 6 11 12 10 11 12 12 12 12 12 12 11 10 10 10 10 10 11 13 13 13 13 13 13 13 13 14 13 15 15 13 11 10 9 9 9 8 8 8 7 7 7 7 6 7 6 6 5 5 5 4 3 4
1 1 2 3 5 8 5 2 1 1 1 1 2 4 6 3 5 1 4 1 1 8 10 2 12 12 4 1 2 3 4 6 9 10 7 11 12 12 13 12 11 11 11 11 11 11 11 10 11 12 13 13 13 12 11 12 13 14 14 13 14 14 13 12 10 10 9 9 9 8 8 8 7 7 7 7 6 7 6 6 5 4 4 4 4 3
1 2 1 1 3 5 5 5 6 6 2 3 2 3 4 10 8 2 2 0 3 4 5 4 10 16 10 3 8 9 9 11 11 10 10 9 13 14 14 13 12 10 11 10 10 9 11 11 10 9 10 9 9 10 10 11 12 12 13 14 14 13 12 12 9 9 9 9 9 8 8 8 7 8 7 7 6 7 7 6 5 5 4 4 4 3
1 1 2 6 6 8 9 6 4 1 3 4 7 2 4 3 6 5 4 4 10 3 6 11 14 20 23 24 19 16 12 12 14 13 13 13 12 13 12 11 10 9 9 9 8 8 6 6 9 9 8 8 7 8 10 11 13 13 14 15 14 12 12 10 10 9 10 9 9 8 8 8 8 7 6 6 6 6 5 5 5 4 4 3 3 3
1 1 5 4 9 11 7 8 8 2 8 12 11 11 5 7 9 8 9 12 4 2 15 10 12 11 19 19 18 19 19 17 17 16 16 14 14 13 12 9 9 8 8 8 7 8 8 8 7 7 8 8 9 9 10 12 13 15 15 15 13 12 10 8 9 9 9 7 7 7 7 6 6 7 6 6 5 5 5 5 4 4 3 3 3 3
1 1 6 4 9 6 8 10 11 9 7 10 11 11 9 7 8 13 14 19 5 7 16 22 16 11 18 20 20 19 18 17 17 17 16 14 12 11 10 10 10 10 9 8 7 6 7 8 7 8 8 9 9 10 11 11 11 11 11 10 9 8 9 8 8 9 8 8 7 7 7 6 5 5 6 5 5 5 4 4 4 3 3 3 3 2
2 4 5 5 5 11 11 8 9 9 5 6 9 13 12 8 14 15 17 16 13 15 18 19 19 21 20 21 20 18 16 14 13 10 11 14 16 15 11 10 10 10 10 9 8 8 7 8 8 9 9 9 10 11 11 9 8 9 10 10 9 8 7 8 9 9 8 9 7 6 6 6 5 6 5 5 6 5 5 4 4 3 3 3 3 2
2 5 2 0 2 7 9 7 6 5 4 7 13 13 13 10 10 14 10 13 10 11 16 19 20 20 18 15 14 13 8 6 9 14 17 17 16 14 11 11 13 14 13 9 8 9 8 9 10 12 13 14 15 14 12 11 8 8 9 10 10 9 7 8 9 8 8 7 7 6 6 6 6 5 5 6 5 4 4 4 4 3 3 3 2 3
1 4 1 1 4 8 3 2 4 6 5 9 16 19 16 10 7 7 6 9 5 13 13 10 9 12 14 11 11 12 13 13 14 15 15 15 14 13 15 16 16 15 11 8 8 10 12 14 15 16 17 17 17 16 13 11 7 7 9 10 9 7 8 8 7 7 6 6 5 6 6 5 6 5 5 5 5 5 5 4 3 3 4 3 3 4
3 1 1 2 4 9 7 3 8 7 8 10 10 9 9 5 6 4 5 4 9 9 6 8 13 12 13 11 15 18 17 15 13 12 14 15 15 15 16 15 14 11 8 9 12 14 15 15 15 16 17 15 15 15 14 9 3 6 6 7 5 7 7 6 6 5 6 5 6 5 5 5 5 5 4 4 4 3 3 3 4 4 3 4 3 2
1 3 1 2 2 7 7 7 3 5 9 10 6 7 3 5 7 7 8 10 10 6 8 8 11 12 14 15 15 18 17 15 12 12 11 13 14 13 12 11 9 9 11 12 13 13 14 14 15 15 16 16 16 14 9 2 4 2 4 5 6 6 6 6 5 6 6 5 5 5 4 4 4 4 3 4 4 3 3 4 5 4 3 3 2 3
2 2 2 1 2 6 5 7 8 7 9 6 3 7 6 8 7 9 7 5 9 9 10 13 14 16 16 14 14 14 14 13 10 10 11 11 7 8 9 8 10 12 13 13 15 16 17 18 19 19 18 17 15 12 5 1 1 4 5 6 6 6 6 5 5 4 4 4 4 4 3 4 3 3 3 3 3 3 4 4 4 4 4 3 4 4
4 3 2 2 3 3 3 0 2 15 4 4 16 11 1 1 1 2 5 7 13 14 13 12 15 15 15 14 11 10 11 13 10 6 5 5 7 7 8 12 13 14 16 15 17 18 19 19 18 18 18 15 13 9 2 0 2 4 4 4 4 2 2 2 3 3 3 2 2 3 3 3 3 3 3 3 3 4 4 4 4 5 4 3 3 3
6 3 2 4 2 4 4 3 12 12 19 9 2 2 0 1 0 0 9 4 8 8 8 11 15 13 13 10 9 9 10 12 12 7 5 9 10 10 12 13 14 15 15 17 18 18 19 19 18 18 16 15 11 7 6 6 5 4 3 2 1 1 2 2 1 1 2 2 2 2 2 2 3 3 3 3 4 4 5 5 4 4 2 3 4 4
5 5 4 3 3 2 4 8 7 7 9 5 2 0 1 2 2 1 1 7 5 11 9 10 11 12 10 9 9 9 10 15 17 12 7 14 12 14 14 14 14 14 16 16 16 17 18 18 17 16 14 13 9 6 5 4 3 3 1 0 0 1 0 1 1 1 1 1 1 1 2 2 3 3 3 3 4 5 4 3 3 4 3 5 5 6
1 2 3 4 4 4 1 3 4 3 12 2 5 2 1 1 3 3 2 10 5 5 5 5 9 8 8 8 10 10 11 13 15 12 13 15 16 16 16 16 16 15 15 14 16 17 17 16 14 14 13 11 10 5 4 2 1 1 2 1 0 0 1 1 0 0 1 0 1 1 1 2 2 3 3 4 5 4 5 5 5 4 3 4 4 5
1 0 1 1 4 4 2 2 8 4 8 4 3 2 3 1 2 3 10 9 3 2 4 3 7 9 7 8 9 10 8 11 14 13 14 16 17 16 16 17 15 14 14 14 15 15 15 14 14 13 13 13 9 5 3 2 2 3 3 1 1 1 2 1 0 0 0 0 1 1 1 2 2 3 3 4 4 3 4 3 3 4 4 5 4 5
2 3 4 10 5 5 6 7 4 8 6 5 4 3 3 2 1 4 10 11 11 13 10 7 7 6 8 10 8 9 5 5 9 12 15 16 16 15 14 14 13 13 14 14 14 14 13 12 12 14 14 12 10 8 5 4 4 4 3 2 2 3 2 1 1 1 0 0 1 1 1 1 2 3 3 3 4 4 4 4 5 5 5 5 4 4
1 2 1 2 3 8 6 6 10 8 8 3 0 3 2 1 6 10 9 6 10 12 8 7 9 8 8 8 7 6 8 9 10 12 13 14 13 14 14 14 14 13 11 12 13 12 11 13 13 15 14 14 14 12 7 5 5 4 4 3 3 2 1 1 0 0 0 0 1 1 1 2 2 3 4 4 3 4 5 4 4 4 5 5 4 6
6 4 5 4 4 1 1 2 7 8 2 3 7 1 1 1 8 8 11 9 6 5 6 6 4 7 7 9 7 8 9 10 11 13 13 12 13 14 14 14 14 14 14 14 11 13 14 13 13 13 14 13 12 10 7 7 7 5 4 5 4 1 0 0 0 0 0 1 2 2 3 2 3 3 2 3 3 4 5 4 4 5 5 6 6 7
4 2 2 4 6 4 3 4 5 6 3 4 3 7 3 8 9 9 7 10 8 4 6 5 5 5 5 6 8 9 10 11 12 13 14 13 13 13 13 13 13 15 14 11 13 14 13 12 10 11 11 9 8 8 8 7 8 7 7 6 2 0 0 0 1 0 0 2 2 3 2 2 2 3 2 3 3 4 5 5 5 5 6 6 6 6
7 6 6 6 3 5 8 8 8 3 5 3 6 7 7 10 4 2 3 4 5 5 3 4 5 5 5 8 9 9 10 10 11 11 12 12 12 13 13 14 16 15 11 13 13 13 11 10 9 10 9 7 7 7 7 8 8 7 7 5 2 1 1 1 1 1 2 3 3 3 3 3 3 3 3 4 3 4 5 6 5 7 7 6 6 6
3 5 0 0 7 4 8 13 11 10 7 8 4 5 8 7 3 2 4 3 3 2 3 4 3 4 6 7 8 7 8 10 12 12 11 11 11 12 12 14 14 11 13 13 13 13 11 9 8 8 6 5 5 6 5 6 5 6 5 4 3 2 1 1 2 3 4 4 4 4 4 4 4 4 4 4 4 5 6 6 6 7 7 6 6 6
2 0 2 3 2 4 8 2 0 3 5 8 10 8 3 2 2 4 4 4 2 2 3 3 2 3 4 5 5 6 7 9 11 9 8 10 12 12 14 14 11 13 13 14 12 12 11 9 10 9 7 7 5 5 5 5 5 5 5 5 4 3 3 3 4 4 4 5 5 4 3 4 4 5 5 4 5 5 6 6 6 6 7 7 7 6
4 1 0 7 6 6 11 9 5 6 9 9 7 5 2 3 3 4 3 1 2 3 3 3 3 3 2 4 3 5 7 8 9 8 10 10 11 12 11 10 12 13 12 11 11 9 9 9 8 8 8 8 7 7 7 6 6 5 6 5 5 4 4 4 4 5 5 5 4 4 4 4 6 6 5 5 5 6 6 6 6 7 8 8 7 6
4 3 4 3 3 7 9 11 9 7 9 11 7 2 3 3 1 1 1 2 3 4 3 3 2 2 3 4 4 5 7 7 8 9 10 10 11 11 9 11 11 11 9 11 9 10 9 7 8 8 8 9 7 8 7 6 6 6 6 6 5 5 5 5 6 5 5 5 5 6 4 5 5 5 6 6 6 7 7 7 7 8 9 8 7 7
1 5 5 2 7 7 7 8 4 9 10 7 4 1 1 1 2 1 1 3 3 3 2 2 2 1 4 4 5 6 6 7 8 9 9 9 11 8 11 11 11 9 8 7 6 8 6 6 6 8 9 8 8 8 8 7 7 6 6 6 6 5 6 6 6 5 6 5 5 5 5 5 5 5 6 6 7 7 8 9 14 12 10 10 13 20
6 7 4 4 3 7 8 5 3 5 8 6 4 4 2 1 2 5 3 2 2 3 1 3 4 3 3 4 5 6 7 8 10 9 7 9 7 9 10 10 9 8 8 8 8 8 8 7 8 7 8 8 7 7 7 7 7 7 7 7 7 6 6 6 6 6 6 6 5 6 6 5 6 5 6 6 7 6 7 8 9 16 22 21 20 20
Wind_Direction
328 68 55 33 335 348 337 343 276 259 230 75 61 101 97 39 308 60 333 120 105 84 60 93 97 96 84 82 99 110 104 103 116 123 131 146 142 147 152 158 155 157 175 191 180 178 165 158 158 164 140 132 109 86 65 43 32 29 29 61 64 76 40 18 4 355 11 4 353 344 350 336 329 327 346 6 68 66 84 83 63 41 27 7 345 337
57 53 8 327 320 351 340 330 347 67 52 113 94 57 22 45 340 308 278 59 1 108 122 108 102 97 102 87 92 90 99 123 140 141 152 157 167 170 168 169 180 184 186 173 181 203 193 193 181 165 165 152 121 125 104 113 68 43 28 49 62 70 68 23 8 348 345 350 4 358 287 329 304 317 330 327 344 80 66 83 65 34 12 351 342 332
49 43 327 334 332 68 32 17 33 89 84 53 72 90 61 340 269 301 1 343 9 89 144 181 109 123 132 117 85 102 103 122 156 164 171 164 175 175 176 182 180 179 191 190 197 209 211 214 206 186 178 172 170 167 141 142 111 69 18 355 23 92 109 56 344 10 302 326 313 50 279 309 291 292 282 285 286 89 81 67 78 38 1 337 332 338
48 347 334 316 43 40 28 29 39 49 64 61 36 42 21 289 55 319 297 335 341 139 159 186 109 151 123 74 127 177 132 155 121 140 175 174 178 182 188 184 182 189 188 192 196 201 212 211 223 211 192 184 172 163 139 319 201 159 192 286 283 227 164 187 237 319 276 281 278 285 263 271 261 261 284 280 294 71 65 39 77 22 9 329 321 332
115 302 313 24 50 55 41 30 41 39 39 23 80 95 1 342 319 169 279 323 47 32 113 121 81 93 237 203 211 226 173 146 178 136 148 189 185 192 191 189 189 189 189 194 202 204 205 208 215 213 212 180 178 181 188 195 234 198 206 216 233 221 203 204 218 229 255 264 282 274 291 284 275 297 287 261 294 132 355 47 61 29 359 326 338 325
22 346 333 43 29 35 43 37 40 55 20 330 197 93 316 282 316 269 305 21 46 179 219 132 14 292 195 217 202 195 202 202 197 176 207 202 194 184 184 196 202 198 193 193 200 202 205 208 212 212 211 196 186 190 195 196 220 216 239 219 238 231 225 205 223 216 239 252 269 289 312 320 289 270 277 288 236 295 280 209 187 26 12 6 338 336
56 336 44 38 49 26 44 59 43 74 13 73 317 5 341 304 267 316 5 59 30 103 324 118 113 274 173 249 209 195 203 212 217 203 213 204 204 204 203 201 199 199 205 209 207 208 210 214 208 212 209 209 204 205 190 200 214 230 231 234 229 233 226 204 213 206 232 212 266 259 253 263 257 257 264 264 296 235 258 132 36 115 28 339 339 323
23 354 18 27 38 37 29 25 324 54 73 343 273 338 327 337 322 290 101 109 218 256 313 27 90 235 301 260 208 197 194 220 225 229 222 214 210 210 211 207 207 207 205 203 211 213 213 213 209 214 208 204 211 203 204 213 220 224 233 229 231 231 217 210 194 211 216 200 235 249 258 265 256 261 264 282 271 254 276 96 300 89 348 346 328 321
94 341 25 22 26 29 24 287 286 36 89 250 295 329 301 270 253 218 120 167 204 98 283 344 336 39 276 269 170 160 217 243 239 227 223 219 215 216 218 211 210 210 207 204 210 215 216 219 219 214 208 207 203 210 218 225 226 226 229 235 232 230 215 210 192 195 234 234 220 224 244 261 270 265 274 294 313 300 287 116 277 86 286 356 321 343
312 132 28 128 63 1 277 303 284 170 23 284 291 295 247 67 119 148 108 53 344 98 274 310 10 107 281 268 283 250 229 252 241 227 221 214 214 217 218 222 218 212 212 213 213 215 220 223 222 208 200 195 207 211 216 229 230 230 228 231 231 225 211 201 203 187 213 231 233 229 247 252 255 274 294 293 276 274 281 203 247 140 22 305 9 319
199 283 140 79 12 283 277 275 5 313 355 297 347 10 7 41 42 38 86 110 55 37 236 237 291 125 298 244 202 167 221 205 228 255 238 224 223 221 217 216 218 216 216 216 218 222 224 224 215 189 202 209 208 211 215 223 226 230 227 225 228 226 206 197 196 187 210 217 206 213 230 234 245 267 274 281 281 270 266 236 223 131 238 355 321 298
5 347 33 279 12 322 80 344 5 13 12 33 20 10 24 346 14 29 352 43 86 276 255 210 162 110 228 291 249 227 253 206 184 212 220 216 216 220 218 220 219 218 220 222 224 232 229 224 213 200 218 214 216 214 216 219 222 226 224 219 220 226 208 197 196 195 207 204 211 210 214 222 237 249 259 263 266 271 263 246 204 204 111 296 275 311
13 38 302 334 269 47 343 51 322 351 6 25 14 21 80 296 34 345 12 11 228 211 247 331 34 9 242 228 229 232 229 235 220 211 216 213 220 223 225 221 219 220 221 222 227 231 230 226 221 216 225 217 218 218 216 216 217 222 221 215 216 222 212 200 196 200 203 203 204 203 204 213 222 235 247 252 260 264 263 239 193 200 189 232 284 287
283 279 12 317 8 15 84 74 334 3 347 8 23 58 63 38 32 316 276 243 317 300 287 344 351 237 256 290 232 223 230 221 217 226 233 221 221 225 231 232 231 227 223 224 227 229 230 229 229 225 225 221 222 221 217 214 215 219 216 213 213 219 210 198 197 202 204 209 207 199 203 209 212 230 236 249 252 261 269 236 202 190 190 196 231 251
49 354 315 32 20 331 54 124 172 208 313 279 269 90 165 140 148 316 252 259 232 238 284 323 80 242 339 245 245 230 280 266 241 243 242 244 243 246 245 242 243 241 235 231 231 231 231 233 228 227 223 224 221 219 216 214 216 213 218 211 214 214 210 200 203 201 208 212 206 202 201 205 208 215 227 234 242 250 269 257 190 197 190 191 230 236
180 200 264 224 203 89 118 259 143 106 109 266 144 99 54 308 137 155 204 198 275 318 325 323 192 194 204 243 296 284 318 295 261 254 254 257 251 255 266 254 246 241 241 237 238 240 240 235 231 228 226 223 220 217 214 213 211 213 216 213 212 211 207 205 206 208 208 211 203 199 203 205 206 216 218 218 240 253 255 252 223 212 204 209 215 238
24 320 244 308 7 185 205 303 13 133 67 288 49 14 225 187 99 18 330 268 193 15 258 209 317 287 311 326 349 351 322 273 278 261 253 250 249 252 253 251 248 245 245 245 239 240 241 239 234 228 226 222 216 214 213 213 208 211 211 211 213 212 207 205 206 208 209 207 198 204 202 203 209 210 210 215 226 235 250 252 238 214 214 206 207 211
131 263 279 126 313 283 209 146 316 62 148 59 58 252 276 97 126 124 236 324 37 222 266 301 247 293 39 291 333 335 295 271 253 250 243 253 254 248 247 247 245 243 241 243 245 245 244 240 236 233 228 223 219 216 214 214 210 210 209 207 209 208 206 206 203 205 205 203 200 203 209 208 207 209 210 209 219 229 233 246 238 231 219 214 214 196
108 346 305 210 202 269 3 48 4 321 105 139 183 200 85 310 344 317 74 339 342 305 275 296 263 263 211 257 327 281 251 270 266 251 254 253 246 242 248 249 249 249 253 252 249 246 245 241 238 234 232 226 223 218 215 214 208 208 208 208 205 207 204 201 200 202 203 198 199 200 206 206 210 204 205 212 216 217 223 232 243 237 222 214 209 209
16 136 298 329 82 296 16 69 284 271 332 20 44 16 6 104 177 75 201 191 126 267 6 290 5 270 213 218 212 273 250 255 267 278 251 243 242 243 245 248 247 247 244 247 247 246 244 243 240 236 232 227 221 220 219 214 209 209 208 206 208 207 201 199 200 195 199 199 193 202 198 209 203 204 203 206 208 221 220 229 227 224 218 213 213 210
316 126 248 277 313 43 290 216 209 161 173 302 34 327 358 334 217 142 258 172 202 218 208 268 315 271 256 202 234 250 256 260 259 260 256 251 249 246 245 245 246 243 244 245 245 247 246 245 244 239 234 231 229 225 220 212 210 211 204 205 203 202 201 203 201 196 200 193 197 194 203 203 198 202 199 205 209 211 222 228 223 214 212 216 220 197
46 1 205 304 351 236 229 259 235 179 167 162 159 204 168 108 5 4 276 344 94 138 243 256 267 270 273 135 222 245 256 259 260 246 254 255 253 251 249 247 243 249 248 247 248 247 249 248 245 244 239 235 233 229 221 215 211 208 206 205 202 202 202 202 200 198 196 193 192 196 200 202 201 201 200 207 213 221 224 222 215 213 217 215 218 184
136 190 108 281 221 229 227 230 230 134 117 152 133 226 164 140 113 111 233 279 358 250 193 192 289 271 272 160 203 233 242 250 251 236 251 257 257 257 253 252 253 247 252 254 250 248 246 243 242 240 239 237 232 232 223 214 209 209 208 204 203 202 207 201 201 195 191 189 188 195 195 194 199 195 202 208 216 222 223 222 218 215 214 212 200 199
102 82 14 284 293 301 295 304 14 47 88 360 329 141 111 186 179 183 182 186 168 284 310 298 228 262 285 286 255 250 253 260 262 234 248 261 264 265 264 262 259 261 256 252 253 249 247 245 245 246 248 246 241 233 223 215 212 211 208 206 204 206 205 200 196 193 186 186 189 189 188 193 197 198 204 212 216 223 223 221 219 215 208 200 195 196
48 280 127 326 354 334 338 352 352 331 53 188 220 227 194 110 89 146 104 57 268 218 206 167 266 275 267 319 325 322 306 288 273 267 244 265 273 273 271 267 261 256 257 257 254 249 249 251 248 244 244 243 242 237 222 214 213 210 210 206 207 209 203 198 191 186 185 182 186 187 190 198 194 197 203 212 215 223 221 221 216 208 199 199 197 200
115 223 97 257 295 312 317 315 286 290 266 246 234 221 186 155 140 122 236 153 202 267 162 181 259 263 273 311 297 294 292 290 280 272 273 255 264 272 275 270 264 258 254 253 255 257 252 248 250 253 250 245 233 229 225 221 217 215 212 211 207 204 197 196 186 184 180 181 184 188 191 196 196 199 206 212 218 221 222 216 209 203 201 184 199 203
168 274 176 165 161 206 223 233 240 50 344 291 268 173 219 195 192 141 110 120 231 213 188 232 240 279 295 295 299 299 297 290 295 297 291 287 278 269 265 266 259 249 246 249 252 262 273 273 262 259 261 259 250 223 221 218 218 215 213 212 206 200 193 187 181 182 177 181 184 186 191 190 179 195 202 207 213 216 213 209 201 192 182 194 188 197
67 326 255 211 228 236 240 261 273 317 269 272 276 272 209 188 177 177 176 234 150 31 277 248 235 250 270 282 289 294 297 302 302 302 300 295 292 292 286 276 276 278 279 283 286 286 280 277 280 276 269 264 254 238 227 221 216 215 210 206 198 190 182 175 175 174 171 167 175 178 189 182 183 171 193 200 207 208 194 179 183 182 183 176 185 184
144 219 270 112 267 252 257 267 277 280 250 253 257 257 258 200 172 195 223 236 184 218 250 274 280 273 276 279 284 287 294 295 297 295 295 298 300 300 298 294 288 286 288 288 284 282 280 281 278 274 270 264 259 248 237 231 225 216 213 200 147 164 170 160 158 171 171 171 177 187 182 178 173 176 187 184 185 183 188 194 190 177 169 176 186 199
87 253 237 184 272 288 278 256 259 244 260 263 257 257 247 205 207 211 233 239 221 233 246 265 277 276 275 278 283 288 289 291 293 297 302 307 310 309 304 299 298 297 296 293 294 297 295 289 291 296 298 295 285 277 269 257 230 212 194 160 170 164 162 154 174 164 169 171 174 176 177 177 175 179 181 179 190 194 196 195 184 181 188 202 195 178
128 270 147 221 328 280 282 279 277 247 233 272 274 267 260 238 229 228 236 259 252 262 262 263 269 276 276 277 281 276 280 282 298 312 312 312 315 314 309 307 307 308 307 303 309 315 315 318 320 319 314 308 301 290 275 255 226 203 196 185 178 171 157 160 170 172 176 181 183 180 164 168 178 172 178 178 187 188 188 198 191 191 200 196 190 211
82 261 39 74 342 289 275 273 309 324 305 279 280 278 272 258 251 241 220 226 200 244 256 277 286 275 280 291 295 303 305 312 312 310 311 312 313 311 310 311 313 312 318 326 327 330 331 328 320 314 308 302 299 294 281 261 226 194 198 177 178 156 150 158 161 158 173 179 173 165 167 175 171 176 182 176 193 195 197 196 184 194 201 203 219 233
182 149 357 4 331 258 272 338 328 327 324 301 272 241 225 223 209 242 256 239 217 227 267 271 260 270 287 303 308 304 306 307 311 312 314 315 313 311 312 314 316 331 338 333 334 332 325 318 312 307 306 308 311 309 294 277 232 206 185 159 148 136 147 143 147 158 171 172 168 171 167 168 175 178 180 189 197 195 181 188 201 209 214 226 229 223
112 132 220 174 212 266 296 322 321 346 311 265 243 171 154 256 256 239 245 240 249 171 221 222 265 292 300 298 295 296 302 303 308 308 309 308 310 312 314 324 339 338 335 333 326 319 314 313 317 324 329 330 328 324 330 281 219 169 138 124 118 115 136 129 151 171 177 165 158 153 163 169 172 180 187 186 183 183 194 195 215 220 219 222 211 228
162 116 215 150 244 279 307 346 342 282 244 241 283 257 250 250 238 228 244 258 270 269 270 285 283 280 276 278 279 281 285 292 301 307 311 308 315 320 332 348 339 334 328 329 330 329 333 340 345 347 342 337 331 323 319 344 82 104 111 125 122 129 133 156 168 161 161 151 138 145 164 171 169 186 184 185 185 191 204 212 226 216 216 212 219 233
160 153 210 296 191 314 358 12 360 276 233 296 291 299 240 112 87 28 287 227 251 257 263 271 269 269 273 277 278 278 285 292 300 306 306 343 359 1 352 336 337 341 342 341 343 351 355 354 346 338 332 327 321 315 333 245 59 74 62 65 92 109 135 147 150 150 135 134 140 157 165 170 184 181 181 186 194 202 219 220 220 230 224 222 231 241
145 126 113 271 167 232 203 172 241 311 316 317 333 31 71 274 273 15 289 274 217 250 248 255 266 273 276 276 282 291 300 308 311 338 66 31 5 357 349 346 350 347 350 355 2 356 352 345 340 333 329 326 325 342 18 28 40 59 62 56 56 130 147 128 160 169 142 144 141 149 161 168 173 189 193 198 205 217 220 216 230 232 206 227 243 250
152 170 237 119 275 155 281 313 315 333 303 279 241 285 360 170 128 143 133 288 244 258 241 240 254 265 275 288 309 325 327 329 323 332 22 3 4 356 352 349 354 358 2 4 359 352 346 341 342 340 340 337 348 11 7 16 29 35 35 8 349 82 76 184 221 122 125 136 141 160 158 169 179 195 204 203 216 225 232 226 239 234 209 221 239 246
107 104 132 153 266 15 312 237 252 256 272 243 289 234 227 203 115 120 356 290 267 234 253 216 263 279 304 334 336 349 358 333 317 327 353 356 358 355 350 355 359 5 4 359 350 345 342 341 342 337 337 335 332 352 6 8 26 358 284 239 284 87 242 293 87 127 155 149 142 152 150 168 187 201 205 215 230 224 234 239 237 235 215 230 233 246
46 360 72 279 250 219 186 265 263 210 260 268 266 198 213 122 89 53 318 302 291 291 241 282 304 329 352 352 349 355 3 327 323 330 352 353 349 350 357 356 358 358 351 346 344 343 339 337 337 342 344 338 330 342 332 311 289 282 285 342 65 342 317 330 360 51 92 115 117 119 139 161 182 200 204 225 234 229 230 234 240 235 236 239 235 247
189 274 168 221 200 240 193 264 311 279 276 283 294 173 208 175 101 342 293 295 324 336 354 5 354 1 358 354 3 342 346 331 322 335 346 344 345 352 359 354 348 344 339 340 340 344 341 347 352 351 348 345 335 324 315 309 312 323 6 31 1 313 346 27 86 105 134 105 122 153 190 185 187 211 223 221 231 231 229 222 231 238 236 246 250 252
255 153 279 108 226 230 205 210 243 263 242 179 255 163 195 348 328 305 282 310 345 339 5 22 359 360 353 355 353 340 329 341 341 339 343 349 352 350 345 341 336 335 337 339 345 354 357 355 351 349 346 342 335 326 316 334 348 9 10 355 325 347 56 89 107 122 96 133 186 208 211 212 221 211 226 236 228 228 238 234 229 235 242 246 254 259
203 157 216 198 219 196 173 251 321 309 279 122 139 109 178 347 283 291 312 333 355 355 11 358 15 354 6 345 352 335 336 343 348 346 345 345 346 342 338 336 339 338 337 343 4 6 359 350 350 349 347 341 344 351 5 10 4 356 351 334 341 14 99 129 127 83 113 214 242 247 245 247 238 247 233 228 215 219 237 241 239 246 247 256 263 264
197 186 252 250 173 256 198 191 217 218 193 191 156 307 220 211 275 319 355 328 347 28 8 355 9 14 9 0 339 342 347 346 346 345 340 340 340 337 337 341 341 338 337 11 7 358 355 351 349 349 347 352 9 13 8 8 0 352 348 337 325 11 71 71 69 99 281 271 274 270 266 247 252 247 245 238 230 224 243 251 250 254 254 255 256 262
195 186 188 245 218 172 245 246 253 254 288 216 185 249 269 273 319 345 341 314 337 4 358 18 2 4 14 356 349 353 344 348 340 338 337 335 337 340 344 347 342 338 10 6 358 353 355 349 351 347 351 1 15 6 6 5 2 348 343 320 336 344 15 30 38 339 297 287 282 283 274 281 268 267 260 255 232 245 249 257 251 262 260 257 258 254
250 211 89 59 258 276 271 254 275 300 296 292 257 236 265 302 354 14 7 11 46 11 46 48 3 4 2 359 346 347 348 338 335 336 339 340 340 343 346 343 340 15 4 358 353 352 351 350 350 349 351 357 8 5 2 359 360 353 323 328 350 359 21 351 325 308 289 286 284 276 278 281 280 272 267 260 243 239 244 247 254 254 264 257 256 249
274 137 164 228 254 9 282 2 109 232 280 288 288 288 310 124 13 11 45 50 9 30 66 86 54 22 2 349 350 337 336 337 333 337 349 342 344 346 347 337 6 4 359 353 350 352 354 352 350 350 352 352 351 355 351 348 349 338 339 341 331 332 325 317 304 292 290 285 282 281 274 268 273 276 269 262 256 250 250 249 248 251 259 256 255 252
316 188 51 233 244 217 258 265 259 275 279 273 263 274 316 343 24 87 110 113 97 92 80 37 14 10 356 339 343 345 342 341 345 356 349 346 346 345 341 1 359 353 356 353 350 356 354 354 355 354 354 351 343 350 346 345 340 338 343 339 333 326 322 311 297 289 286 284 283 279 271 267 270 270 270 263 255 257 259 249 239 243 248 249 243 243
200 89 253 171 224 265 279 279 275 283 258 262 287 336 27 1 14 76 54 76 107 103 64 18 8 338 337 340 357 1 351 357 11 358 347 345 346 338 7 355 353 354 353 351 349 2 353 360 1 355 353 341 342 344 345 341 340 340 342 335 333 329 322 305 296 290 288 285 288 281 274 266 266 265 266 268 262 251 242 249 250 247 253 242 226 225
77 251 241 326 297 286 245 270 337 336 318 311 304 295 325 161 120 37 63 82 94 88 83 31 340 345 349 354 23 13 11 356 360 354 350 351 334 0 358 352 351 347 350 347 354 355 357 359 357 348 345 339 341 342 342 339 337 336 334 333 326 326 314 302 297 293 287 283 281 279 279 275 270 265 265 263 266 271 271 249 250 250 242 252 248 242
192 225 162 187 188 264 276 265 246 249 273 266 285 333 68 168 29 18 30 105 124 128 100 30 0 6 14 23 30 33 16 4 356 348 355 338 351 6 355 353 340 340 343 350 356 355 352 346 347 344 343 338 340 339 338 335 330 332 329 329 325 323 311 302 298 291 288 290 283 277 276 273 273 267 264 263 266 268 273 289 279 275 279 281 286 287